Starlink 11421

operational
NORAD ID: 61945 Int'l Des: 2024-209 Owner: SPXS Country: US Constellation: starlink
LEOCIRCULAR

Über Starlink 11421

Beschreibung wird geladen...

Live-Position

3D-Globus wird geladen...

Nächste Überflüge

Höhenverlauf

Altitude vs Time

uPlot chart will show altitude changes over time

Zweizeiliger Elementsatz

1 61945U 24209G 25305.25637262 .00173432 00000-0 14039-2 0 9999
2 61945 53.1559 284.5647 0001631 62.7556 297.3628 15.69757340 56503
Epoch: 1. Nov. 2025 • Age: 28 hours

Aktueller Status

Höhe 358.3 km
Geschwindigkeit 7.70 km/s
Subsatellitenpunkt 5.50°N, 95.86°E
Startdatum 14. Nov. 2024
Alter 0.9 years
Typ internet

Technische Details

Klassifizierung Payload
Masse 960.00 kg
Trockenmasse 910.00 kg
Gesamtmasse 960.00 kg
Länge 0.30 m
Durchmesser 4.10 m
Spannweite 29.00 m
Form Box + pan
Hersteller SPXS
Bus-Typ Starlink V2MD
Phasenstatus In Orbit
Besitzer/Staat SPXS/US

Große Konstellationen

Loading constellations...